This is the latest recevied weather packets stored in our database for station/object SV1TGC. If no packets are shown the sender has not sent any weather packets the latest 10 day(s).
| Time | Temp. | Humidity | Pressure | Rain* | Wind** | Luminosity | Snow |
|---|---|---|---|---|---|---|---|
| 1778309434 | 20.56° C | 56% | 1015.1 hPa | 0 mm | - | - | - |
| 1778307037 | 18.89° C | 71% | 1015.2 hPa | 0 mm | - | - | - |
| 1778306136 | 18.33° C | 78% | 1015.4 hPa | 0 mm | - | - | - |
| 1778305233 | 17.78° C | 81% | 1015.4 hPa | 0 mm | - | - | - |
| 1778304699 | 17.22° C | 82% | 1015.4 hPa | 0 mm | - | - | - |
| 1778303136 | 16.67° C | 84% | 1015.4 hPa | 0 mm | - | - | - |
| 1778302850 | 16.67° C | 84% | 1015.5 hPa | 0 mm | - | - | - |
| 1778298034 | 16.11° C | 84% | 1015.4 hPa | 0 mm | - | - | - |
| 1778295662 | 15.56° C | 84% | 1015.4 hPa | 0 mm | - | - | - |
| 1778291144 | 16.11° C | 82% | 1014.8 hPa | 0 mm | - | - | - |
| 1778288450 | 16.67° C | 81% | 1015.6 hPa | 0 mm | - | - | - |
| 1778287834 | 16.67° C | 82% | 1016 hPa | 0 mm | - | - | - |
| 1778286673 | 16.67° C | 83% | 1016.5 hPa | 0 mm | - | - | - |
| 1778284534 | 16.67° C | 82% | 1016.7 hPa | 0 mm | - | - | - |
| 1778283334 | 16.67° C | 82% | 1016.7 hPa | 0 mm | - | - | - |
| 1778281246 | 17.78° C | 80% | 1017 hPa | 0 mm | - | - | - |
| 1778278838 | 17.78° C | 75% | 1017.5 hPa | 0 mm | - | - | - |
| 1778276133 | 18.33° C | 74% | 1017.4 hPa | 0 mm | - | - | - |
| 1778275848 | 18.33° C | 73% | 1017.5 hPa | 0 mm | - | - | - |
| 1778274636 | 18.33° C | 72% | 1017.7 hPa | 0 mm | - | - | - |
| 1778274333 | 18.33° C | 72% | 1017.5 hPa | 0 mm | - | - | - |
| 1778273736 | 18.33° C | 71% | 1017.7 hPa | 0 mm | - | - | - |
| 1778273148 | 18.33° C | 69% | 1017.7 hPa | 0 mm | - | - | - |
| 1778271934 | 18.33° C | 67% | 1017.7 hPa | 0 mm | - | - | - |
| 1778271033 | 18.89° C | 66% | 1017.4 hPa | 0 mm | - | - | - |
* Rain latest hour (hover to see other rain measurements)
** Current wind speed in m/s (hover to see current wind gust speed)